Date String (YYYY-MM-DD hh:mm:ss) UTC,Instrument flags,Ambient pressure (hPa),Sample flow (lpm),Bypass flow (lpm),Sample temperature (°C),Ambient temperature (°C),ASC tube jacket temperature (°C),LED temperature (°C),Box temperature (°C),Sample RH (%),Span deviation,Mass concentration (μg/m³),Mass concentration (μg/m³),Mass concentration (μg/m³)
DateTimeUTC,F1_M11,P_M11,Q1_M11,Q2_M11,T1_M11,T2_M11,T3_M11,T4_M11,T5_M11,U1_M11,ZSPAN_M11,X2_M11,X0_M11,X1_M11
2022-02-01 00:00:00,,0813.6,4.99,0.00,25.4,24.6,00.0,34.4,27.1,03.7,0000.0,0000.44,0002.20,0000.36
2022-02-01 00:01:00,,0813.9,5.00,0.00,25.3,24.6,00.0,34.4,27.1,03.8,0000.0,0000.45,0002.21,0000.37
2022-02-01 00:02:00,,0813.7,4.99,0.00,25.4,24.6,00.0,34.4,27.2,03.8,0000.0,0000.45,0002.26,0000.37
2022-02-01 00:03:00,,0813.7,5.00,0.00,25.4,24.6,00.0,34.4,27.2,03.7,0000.0,0000.46,0002.16,0000.37
2022-02-01 00:04:00,,0813.8,5.01,0.00,25.4,24.7,00.0,34.4,27.2,03.8,0000.0,0000.47,0000.95,0000.37
2022-02-01 00:05:00,,0814.0,4.98,0.00,25.4,24.7,00.0,34.4,27.1,03.8,0000.0,0000.48,0000.98,0000.37
2022-02-01 00:06:00,,0814.0,5.02,0.00,25.4,24.7,00.0,34.4,27.2,03.9,0000.0,0000.49,0001.00,0000.37
2022-02-01 00:07:00,,0814.0,4.98,0.00,25.4,24.7,00.0,34.4,27.2,03.9,0000.0,0000.49,0001.01,0000.37
2022-02-01 00:08:00,,0813.8,5.00,0.00,25.4,24.7,00.0,34.4,27.3,03.8,0000.0,0000.49,0000.99,0000.37
2022-02-01 00:09:00,,0813.8,5.01,0.00,25.4,24.8,00.0,34.4,27.2,03.9,0000.0,0000.49,0001.97,0000.38
2022-02-01 00:10:00,,0814.0,4.99,0.00,25.4,24.8,00.0,34.4,27.3,04.0,0000.0,0000.48,0002.44,0000.39
2022-02-01 00:11:00,,0813.7,5.01,0.00,25.4,24.8,00.0,34.4,27.3,04.1,0000.0,0000.50,0002.48,0000.39
2022-02-01 00:12:00,,0814.2,4.99,0.00,25.5,24.8,00.0,34.4,27.3,03.9,0000.0,0000.51,0002.65,0000.40
2022-02-01 00:13:00,,0814.1,4.99,0.00,25.5,24.8,00.0,34.4,27.4,04.0,0000.0,0000.52,0003.34,0000.41
2022-02-01 00:14:00,,0813.7,4.99,0.00,25.5,24.9,00.0,34.4,27.4,04.0,0000.0,0000.54,0004.06,0000.42
2022-02-01 00:15:00,,0814.0,5.02,0.00,25.5,24.9,00.0,34.4,27.4,03.7,0000.0,0000.54,0004.19,0000.43
2022-02-01 00:16:00,,0814.0,4.99,0.00,25.5,24.8,00.0,34.4,27.4,03.8,0000.0,0000.56,0004.23,0000.44
2022-02-01 00:17:00,,0813.9,5.01,0.00,25.5,24.8,00.0,34.4,27.3,03.8,0000.0,0000.58,0004.36,0000.45
2022-02-01 00:18:00,,0813.7,4.99,0.00,25.5,24.8,00.0,34.4,27.3,03.8,0000.0,0000.60,0004.42,0000.47
2022-02-01 00:19:00,,0813.7,4.99,0.00,25.5,24.8,00.0,34.4,27.4,03.8,0000.0,0000.62,0004.77,0000.47
2022-02-01 00:20:00,,0813.8,5.01,0.00,25.5,24.8,00.0,34.4,27.3,03.9,0000.0,0000.61,0004.47,0000.48
2022-02-01 00:21:00,,0814.0,5.00,0.00,25.5,24.8,00.0,34.4,27.4,03.9,0000.0,0000.60,0003.29,0000.48
2022-02-01 00:22:00,,0814.0,5.01,0.00,25.5,24.8,00.0,34.4,27.4,03.9,0000.0,0000.58,0003.26,0000.48
2022-02-01 00:23:00,,0813.8,4.99,0.00,25.5,24.8,00.0,34.4,27.4,03.9,0000.0,0000.59,0003.36,0000.48
2022-02-01 00:24:00,,0814.0,5.00,0.00,25.5,24.8,00.0,34.4,27.4,03.8,0000.0,0000.61,0002.76,0000.48
2022-02-01 00:25:00,,0814.1,5.02,0.00,25.5,24.8,00.0,34.4,27.4,03.8,0000.0,0000.61,0002.10,0000.48
2022-02-01 00:26:00,,0813.8,4.99,0.00,25.5,24.8,00.0,34.4,27.4,03.8,0000.0,0000.61,0001.75,0000.48
2022-02-01 00:27:00,,0813.8,5.02,0.00,25.5,24.8,00.0,34.4,27.3,03.7,0000.0,0000.59,0001.70,0000.47
2022-02-01 00:28:00,,0813.6,4.99,0.00,25.5,24.8,00.0,34.4,27.3,03.6,0000.0,0000.59,0001.64,0000.47
2022-02-01 00:29:00,,0813.7,5.01,0.00,25.5,24.8,00.0,34.4,27.3,03.6,0000.0,0000.57,0001.55,0000.46
2022-02-01 00:30:00,,0813.8,4.99,0.00,25.5,24.8,00.0,34.4,27.3,03.7,0000.0,0000.59,0001.35,0000.46
2022-02-01 00:31:00,,0814.1,5.02,0.00,25.5,24.8,00.0,34.4,27.3,03.6,0000.0,0000.58,0001.04,0000.45
2022-02-01 00:32:00,,0814.1,4.99,0.00,25.5,24.8,00.0,34.4,27.3,03.5,0000.0,0000.58,0001.04,0000.46
2022-02-01 00:33:00,,0813.9,5.01,0.00,25.5,24.8,00.0,34.5,27.3,03.5,0000.0,0000.58,0001.03,0000.45
2022-02-01 00:34:00,,0813.7,5.00,0.00,25.5,24.8,00.0,34.5,27.3,03.5,0000.0,0000.57,0000.92,0000.45
2022-02-01 00:35:00,,0813.9,5.00,0.00,25.5,24.8,00.0,34.5,27.3,03.4,0000.0,0000.55,0000.79,0000.45
2022-02-01 00:36:00,,0814.2,5.01,0.00,25.5,24.8,00.0,34.5,27.3,03.7,0000.0,0000.53,0000.75,0000.44
2022-02-01 00:37:00,,0813.9,4.99,0.00,25.5,24.8,00.0,34.5,27.3,03.6,0000.0,0000.52,0000.71,0000.44
2022-02-01 00:38:00,,0814.0,5.00,0.00,25.5,24.8,00.0,34.5,27.3,03.5,0000.0,0000.52,0000.69,0000.44
2022-02-01 00:39:00,,0814.1,5.00,0.00,25.5,24.8,00.0,34.5,27.2,03.4,0000.0,0000.49,0000.63,0000.43
2022-02-01 00:40:00,,0813.9,5.01,0.00,25.4,24.7,00.0,34.5,27.2,03.3,0000.0,0000.47,0000.59,0000.43
2022-02-01 00:41:00,,0814.4,5.00,0.00,25.4,24.6,00.0,34.5,27.1,03.3,0000.0,0000.47,0000.55,0000.44
2022-02-01 00:42:00,,0814.4,5.01,0.00,25.4,24.6,00.0,34.4,27.2,03.5,0000.0,0000.50,0000.63,0000.44
2022-02-01 00:43:00,,0814.0,4.99,0.00,25.4,24.6,00.0,34.4,27.2,03.6,0000.0,0000.50,0000.63,0000.44
2022-02-01 00:44:00,,0814.0,5.02,0.00,25.4,24.6,00.0,34.4,27.2,03.6,0000.0,0000.52,0000.68,0000.44
2022-02-01 00:45:00,,0814.0,4.98,0.00,25.4,24.6,00.0,34.4,27.1,03.4,0000.0,0000.51,0000.94,0000.44
2022-02-01 00:46:00,,0814.0,5.00,0.00,25.4,24.6,00.0,34.4,27.1,03.5,0000.0,0000.51,0002.00,0000.45
2022-02-01 00:47:00,,0814.0,4.99,0.00,25.3,24.6,00.0,34.4,27.1,03.5,0000.0,0000.52,0002.00,0000.45
2022-02-01 00:48:00,,0814.0,5.00,0.00,25.3,24.5,00.0,34.4,27.1,03.3,0000.0,0000.52,0002.01,0000.45
2022-02-01 00:49:00,,0814.1,5.01,0.00,25.3,24.5,00.0,34.4,27.1,03.8,0000.0,0000.54,0002.10,0000.46
2022-02-01 00:50:00,,0814.1,5.00,0.00,25.3,24.5,00.0,34.4,27.1,03.9,0000.0,0000.57,0002.14,0000.48
2022-02-01 00:51:00,,0814.0,5.00,0.00,25.3,24.5,00.0,34.3,27.1,04.0,0000.0,0000.60,0002.20,0000.49
2022-02-01 00:52:00,,0814.2,5.00,0.00,25.3,24.6,00.0,34.3,27.1,04.0,0000.0,0000.59,0002.23,0000.48
2022-02-01 00:53:00,,0814.0,5.01,0.00,25.3,24.6,00.0,34.3,27.2,04.4,0000.0,0000.61,0002.27,0000.51
2022-02-01 00:54:00,,0814.3,4.99,0.00,25.3,24.6,00.0,34.3,27.2,05.0,0000.0,0000.71,0002.42,0000.59
2022-02-01 00:55:00,,0814.3,5.01,0.00,25.3,24.6,00.0,34.3,27.2,05.3,0000.0,0000.91,0002.75,0000.77
2022-02-01 00:56:00,,0814.4,4.99,0.00,25.4,24.7,00.0,34.3,27.2,05.4,0000.0,0001.13,0003.00,0000.96
2022-02-01 00:57:00,,0814.4,5.00,0.00,25.4,24.7,00.0,34.3,27.2,05.6,0000.0,0001.40,0002.29,0001.16
2022-02-01 00:58:00,,0814.3,5.00,0.00,25.4,24.7,00.0,34.3,27.2,05.6,0000.0,0001.63,0002.77,0001.34
2022-02-01 00:59:00,,0814.1,5.00,0.00,25.4,24.7,00.0,34.3,27.2,05.9,0000.0,0001.92,0003.36,0001.60
